Wetbulb
66.51 69.70 71.63 72.43 72.65 72.70 72.58 72.34 72.38 72.39 72.47 72.72 72.87 72.84 72.72 72.75 72.99 72.99 72.73 72.40 72.26 71.50 71.18 70.89 70.59 70.37 70.18 69.98 69.60 69.28 68.88 69.12 69.42 69.51 71.58 71.13 71.13 71.18 71.20 71.10 70.70 69.00 69.53
67.78 69.69 71.03 71.96 72.40 72.44 72.38 72.34 72.25 72.41 72.61 72.80 72.68 72.53 72.28 72.50 72.74 72.74 72.65 72.40 72.07 71.37 70.76 70.12 70.12 70.40 70.53 70.17 69.83 69.58 69.53 69.91 69.81 70.10 70.72 70.94 70.78 70.27 70.46 69.92 70.97 70.18 69.48
68.18 69.82 70.56 71.30 71.87 72.05 72.39 72.34 72.45 72.76 72.83 72.83 72.51 72.47 72.69 72.72 72.91 72.86 72.58 72.30 72.31 71.99 71.25 70.47 69.88 69.61 69.46 69.54 69.28 69.11 69.25 69.69 69.55 69.83 70.28 68.44 68.37 69.71 69.29 68.54 68.93 69.26 70.22
69.20 69.51 70.01 71.14 71.48 71.81 71.86 72.28 72.35 72.68 72.52 72.39 72.15 72.14 72.09 72.86 72.87 72.54 72.36 71.84 72.09 71.85 71.63 70.74 69.83 69.08 68.25 67.55 67.06 66.81 67.06 67.32 67.66 67.66 66.00 66.53 67.63 68.88 68.72 68.39 68.32 68.16 69.33
68.52 69.49 70.18 70.68 70.93 71.62 71.79 72.05 72.07 72.08 71.88 71.85 71.80 72.06 71.91 72.18 72.31 71.69 71.45 71.11 70.54 70.65 70.38 69.42 68.08 66.50 65.00 64.47 64.35 64.58 64.72 65.42 66.24 65.78 65.68 65.64 65.84 66.96 66.64 65.98 66.03 67.62 68.56
68.12 69.17 69.62 69.71 70.59 71.41 71.83 71.89 71.87 71.55 71.16 71.30 71.42 71.76 71.59 71.15 70.78 70.42 70.24 70.04 69.13 68.59 67.97 67.08 65.85 64.29 63.04 62.26 62.21 62.37 63.00 64.36 64.64 62.99 63.53 63.32 62.80 65.93 64.47 63.74 64.17 65.11 67.56
68.11 68.90 69.49 69.27 70.31 71.11 71.73 71.85 71.48 71.02 70.65 70.96 71.20 71.36 71.02 70.11 69.34 68.61 68.58 68.23 67.35 66.74 65.90 64.69 63.45 62.20 61.12 60.40 60.25 60.99 61.86 64.30 61.51 60.35 59.91 59.34 60.66 63.14 63.40 63.12 62.55 63.68 66.51
68.27 68.64 69.30 70.11 70.04 70.33 70.83 70.92 70.04 69.92 69.92 70.39 70.59 70.13 69.77 68.87 67.73 66.96 66.49 65.77 65.15 64.25 63.42 62.30 61.14 60.18 59.29 58.18 58.55 59.54 61.06 62.41 60.04 58.80 58.16 58.42 61.18 62.55 62.50 61.95 62.34 64.02 65.46
68.61 68.20 68.71 69.15 69.76 69.48 68.99 68.91 68.31 68.56 69.18 69.12 68.80 68.32 67.63 66.72 66.09 65.42 64.54 63.84 63.09 62.45 61.43 60.23 58.94 58.12 57.29 56.34 57.40 58.52 61.22 61.03 56.49 57.17 58.60 57.57 61.27 61.23 61.44 61.29 62.14 62.33 62.78
67.63 67.60 67.65 67.79 68.17 67.81 68.10 67.69 67.76 67.77 67.67 67.51 67.09 66.26 65.66 64.97 64.50 63.98 62.83 62.10 61.30 60.63 59.91 58.62 57.57 56.56 56.01 56.76 56.60 58.57 60.55 58.95 55.53 55.82 56.03 57.61 60.66 60.64 60.92 61.27 61.60 61.23 61.11
66.65 66.85 67.16 67.63 67.63 67.29 67.72 68.14 67.63 67.29 66.71 66.31 65.89 64.98 63.15 61.05 60.03 59.83 60.32 60.72 59.78 59.16 58.37 57.17 56.54 56.18 56.60 57.29 56.88 59.79 57.80 54.24 53.48 53.26 54.00 59.40 59.54 60.01 60.32 60.05 60.47 60.41 60.05
66.02 66.20 67.41 67.07 66.69 66.83 67.56 66.94 66.20 66.17 64.89 63.35 62.74 61.85 60.44 58.95 57.00 57.46 58.74 59.39 58.61 57.93 57.20 56.67 56.62 56.16 55.99 49.29 49.93 56.31 52.87 52.19 51.51 51.81 53.22 57.54 58.49 59.10 59.52 58.96 59.21 59.61 59.09
66.64 66.83 67.14 66.96 66.65 66.11 65.69 64.97 64.86 64.09 63.09 61.47 60.97 60.23 57.92 57.88 56.30 54.01 52.76 53.38 50.93 54.61 50.29 52.87 52.22 50.32 49.92 49.64 49.63 50.46 51.06 50.07 49.58 50.20 53.08 55.43 56.89 58.14 58.43 58.39 59.33 59.14 57.20
66.60 66.95 67.49 66.93 65.62 65.20 64.78 64.42 64.14 63.63 62.80 60.91 60.72 59.45 55.38 54.21 51.37 49.73 49.54 48.93 49.02 49.72 48.45 48.36 48.20 48.18 48.39 49.75 49.54 50.44 49.98 48.36 47.83 47.46 50.00 53.57 55.24 56.46 57.45 58.02 57.98 57.90 56.26
65.87 66.89 67.13 66.79 65.35 64.57 64.23 64.51 63.81 63.69 63.10 61.02 59.52 59.75 56.07 53.15 50.80 49.25 49.53 49.80 49.72 49.74 48.31 47.45 47.68 47.83 47.60 48.91 48.87 49.63 49.39 47.37 46.16 46.02 45.52 51.85 52.62 54.33 56.03 56.96 58.26 56.52 55.54
65.60 65.78 66.40 66.11 65.65 65.17 64.07 64.33 64.18 64.21 62.94 61.32 60.02 58.10 55.53 54.05 52.51 51.21 49.81 48.73 48.26 48.13 47.75 47.65 47.63 46.49 47.49 48.01 48.14 48.58 48.23 46.66 45.36 45.27 45.15 46.89 51.06 51.87 53.65 55.42 56.05 55.25 54.57
65.07 65.54 65.20 65.58 65.50 65.32 64.37 64.27 64.31 63.60 63.14 61.06 59.64 56.78 55.04 53.88 52.26 49.83 48.76 47.41 47.06 47.65 47.80 46.94 46.77 46.93 47.31 48.22 47.28 46.56 45.99 45.68 45.42 44.81 44.35 44.35 46.19 50.11 51.68 52.76 52.07 52.29 52.99
64.58 64.56 65.18 66.03 65.00 65.00 64.49 64.41 64.71 62.25 61.62 58.70 58.02 55.89 54.83 53.86 52.00 49.63 49.07 47.64 48.16 47.64 46.87 46.31 45.92 45.68 46.02 46.04 45.43 45.24 44.45 44.29 43.80 43.94 44.45 43.98 43.32 44.77 48.56 50.14 49.58 49.99 50.67
64.61 63.98 64.12 64.93 64.62 64.31 64.07 63.43 61.61 59.48 57.47 56.20 55.45 55.01 53.28 52.90 52.29 49.81 48.53 47.97 47.68 47.42 47.38 47.00 46.05 45.95 44.96 45.31 45.59 44.26 43.79 43.50 43.25 44.64 42.39 41.43 42.71 42.54 43.39 48.83 48.08 48.07 48.96
64.39 63.87 63.46 63.96 64.27 64.07 63.42 60.85 59.01 57.04 55.12 53.61 53.79 53.67 52.45 52.05 51.65 49.49 48.15 47.21 47.17 46.62 46.23 45.96 45.49 45.71 45.29 45.25 48.02 45.10 43.04 42.66 41.92 41.47 41.60 42.50 41.87 42.44 42.39 43.91 41.55 43.24 46.97
63.69 62.67 62.25 62.32 63.48 63.25 61.38 58.66 56.58 55.58 53.04 51.54 52.72 53.05 51.52 51.26 50.56 49.40 48.10 46.79 47.36 45.91 45.18 45.32 44.61 44.40 43.82 44.34 43.12 42.13 42.14 42.03 41.74 41.21 40.56 39.71 41.20 41.46 41.01 41.79 40.13 38.33 40.86
63.57 62.40 61.53 61.90 62.32 62.01 60.47 59.12 56.09 55.72 54.05 52.94 51.66 52.59 52.05 50.79 49.42 48.26 47.71 46.55 46.86 45.87 46.09 45.19 44.36 43.66 42.91 44.61 42.27 41.08 38.48 40.92 41.35 41.54 39.88 40.90 38.87 40.68 40.56 40.83 39.77 38.23 36.08
63.33 62.34 61.68 61.99 60.90 60.93 59.93 57.36 53.99 54.51 52.02 50.10 49.37 50.75 50.99 50.71 49.44 48.17 47.41 46.92 46.19 46.98 45.71 44.69 44.30 43.54 41.31 42.12 44.82 42.66 39.01 37.35 38.52 40.14 38.78 39.60 38.56 37.88 38.27 39.70 39.21 38.75 36.88
62.94 63.46 62.58 61.82 59.55 59.51 57.55 55.61 53.28 51.57 50.76 51.00 48.31 51.14 51.29 50.34 48.99 48.01 47.90 46.97 46.41 46.60 46.19 46.08 46.80 43.01 40.92 39.38 40.10 42.88 40.81 41.73 38.21 35.81 38.97 37.66 38.43 38.42 37.08 37.46 37.63 38.22 36.90
62.46 62.73 61.89 60.56 59.05 58.19 56.30 55.34 53.34 52.14 52.16 51.20 51.03 50.76 50.31 49.11 48.33 48.31 46.98 46.43 45.02 45.39 45.30 45.31 43.84 43.71 41.72 40.52 39.30 39.33 39.51 38.92 38.00 37.21 33.92 34.79 36.43 37.01 37.27 37.36 36.96 36.62 37.19
60.13 61.66 60.87 60.02 58.52 57.91 55.89 55.02 53.67 52.11 50.58 49.22 48.80 49.14 49.33 48.79 48.20 47.97 47.53 45.81 44.92 44.46 43.95 43.57 43.22 42.07 41.14 42.18 41.70 41.36 39.79 37.57 35.53 33.86 32.66 33.03 33.77 35.15 36.88 36.68 36.58 35.90 35.88
MSLP
1009.26 1009.49 1010.22 1010.78 1011.25 1012.06 1012.68 1013.03 1013.34 1013.80 1014.20 1014.47 1014.79 1015.07 1015.26 1015.52 1015.65 1015.89 1016.13 1016.25 1016.48 1016.64 1016.84 1017.03 1017.18 1017.23 1017.23 1017.24 1017.25 1017.20 1017.23 1017.56 1017.64 1017.61 1017.55 1017.59 1017.59 1017.61 1017.60 1017.50 1017.47 1017.52 1017.55
1008.46 1009.22 1009.78 1010.56 1011.19 1011.79 1012.63 1013.11 1013.44 1013.79 1014.24 1014.64 1014.89 1015.22 1015.40 1015.67 1015.86 1016.04 1016.29 1016.47 1016.67 1016.82 1017.03 1017.18 1017.34 1017.43 1017.48 1017.54 1017.54 1017.41 1017.46 1017.75 1017.78 1017.75 1017.81 1017.87 1017.88 1017.87 1017.95 1017.84 1017.63 1017.60 1017.70
1008.64 1009.58 1009.94 1010.53 1011.21 1011.70 1012.56 1013.09 1013.51 1013.82 1014.19 1014.62 1015.00 1015.32 1015.54 1015.72 1016.00 1016.23 1016.43 1016.68 1016.80 1016.95 1017.15 1017.29 1017.41 1017.66 1017.80 1017.82 1017.76 1017.58 1017.76 1017.71 1017.82 1017.79 1017.94 1018.05 1018.17 1018.13 1018.18 1018.16 1018.13 1017.99 1017.79
1008.86 1009.43 1009.90 1010.45 1011.17 1011.71 1012.47 1013.03 1013.49 1013.84 1014.19 1014.60 1015.02 1015.42 1015.66 1015.91 1016.12 1016.40 1016.59 1016.86 1017.10 1017.24 1017.36 1017.54 1017.74 1017.99 1018.21 1018.08 1017.98 1017.85 1017.98 1017.74 1018.03 1017.81 1018.11 1018.30 1018.28 1018.30 1018.53 1018.61 1018.49 1018.27 1018.07
1009.32 1009.39 1009.97 1010.55 1011.13 1011.83 1012.44 1013.03 1013.52 1013.79 1014.23 1014.60 1014.98 1015.49 1015.82 1016.06 1016.30 1016.58 1016.81 1017.00 1017.28 1017.50 1017.66 1017.90 1018.08 1018.21 1018.33 1018.28 1018.17 1018.03 1017.94 1017.87 1018.03 1018.43 1018.71 1018.72 1018.62 1018.71 1019.03 1019.10 1018.99 1018.61 1018.36
1009.51 1009.85 1010.06 1010.74 1011.37 1011.83 1012.55 1013.06 1013.56 1013.84 1014.20 1014.63 1015.03 1015.43 1015.92 1016.28 1016.56 1016.85 1017.06 1017.23 1017.62 1017.92 1018.05 1018.23 1018.32 1018.35 1018.38 1018.38 1018.28 1018.19 1018.05 1018.21 1018.33 1018.78 1018.85 1018.96 1018.97 1019.32 1019.58 1019.54 1019.31 1018.93 1018.62
1009.80 1010.39 1010.42 1010.89 1011.47 1011.94 1012.43 1013.02 1013.62 1013.91 1014.23 1014.60 1015.06 1015.50 1015.83 1016.45 1016.89 1017.06 1017.29 1017.56 1017.81 1018.23 1018.34 1018.43 1018.47 1018.54 1018.54 1018.49 1018.53 1018.35 1018.41 1018.43 1018.83 1019.28 1019.46 1019.51 1019.60 1019.89 1019.88 1019.87 1019.76 1019.33 1018.92
1009.86 1010.56 1010.86 1011.33 1011.70 1012.03 1012.53 1013.15 1013.55 1013.98 1014.37 1014.66 1015.14 1015.64 1015.87 1016.38 1016.86 1017.30 1017.51 1017.82 1018.05 1018.36 1018.62 1018.66 1018.73 1018.72 1018.75 1018.61 1018.58 1018.60 1018.80 1018.84 1019.26 1019.58 1019.86 1020.00 1020.27 1020.21 1020.22 1020.18 1019.92 1019.54 1019.24
1009.65 1010.44 1010.89 1011.52 1011.88 1012.28 1012.61 1013.08 1013.60 1013.92 1014.22 1014.85 1015.16 1015.54 1016.17 1016.65 1016.83 1017.25 1017.75 1018.04 1018.32 1018.62 1018.81 1018.89 1018.94 1018.94 1018.88 1018.74 1018.72 1018.92 1019.23 1019.55 1019.69 1019.95 1020.08 1020.48 1020.61 1020.63 1020.61 1020.45 1020.22 1020.00 1019.86
1009.85 1010.53 1010.96 1011.48 1011.98 1012.51 1012.75 1013.02 1013.47 1014.00 1014.28 1014.71 1015.19 1015.63 1016.47 1016.85 1017.07 1017.25 1017.68 1018.13 1018.57 1018.81 1018.89 1019.06 1019.14 1019.07 1019.00 1018.88 1018.76 1019.05 1019.41 1019.93 1020.27 1020.47 1020.75 1020.94 1020.98 1021.00 1020.87 1020.70 1020.53 1020.51 1020.40
1010.28 1010.62 1010.85 1011.27 1011.62 1012.27 1012.72 1013.12 1013.62 1014.04 1014.43 1014.87 1015.22 1015.70 1016.50 1016.86 1017.26 1017.52 1017.79 1018.04 1018.42 1018.79 1019.10 1019.16 1019.19 1019.19 1019.20 1019.12 1019.01 1019.38 1019.81 1020.56 1020.94 1021.21 1021.40 1021.45 1021.41 1021.38 1021.17 1021.15 1020.99 1020.98 1021.04
1010.04 1010.59 1010.81 1011.31 1011.57 1011.98 1012.63 1013.19 1013.64 1014.13 1014.58 1015.01 1015.35 1015.80 1016.38 1016.86 1017.13 1017.49 1017.84 1018.24 1018.44 1018.60 1018.80 1019.08 1019.33 1019.44 1019.30 1019.45 1019.48 1019.89 1020.42 1020.97 1021.30 1021.76 1021.97 1021.97 1021.84 1021.71 1021.55 1021.51 1021.42 1021.46 1021.58
1009.66 1010.30 1010.67 1011.09 1011.20 1011.83 1012.63 1013.18 1013.59 1014.10 1014.60 1014.98 1015.29 1015.80 1016.25 1016.64 1017.21 1017.60 1017.90 1018.04 1018.44 1018.68 1018.79 1018.93 1019.25 1019.48 1019.54 1019.62 1019.66 1020.31 1020.90 1021.28 1021.74 1022.14 1022.45 1022.58 1022.37 1022.15 1022.00 1021.82 1021.75 1021.88 1021.95
1009.19 1009.90 1010.51 1010.86 1011.11 1011.68 1012.36 1012.87 1013.39 1013.62 1014.31 1014.78 1015.12 1015.58 1016.03 1016.67 1017.15 1017.76 1018.11 1018.15 1018.21 1018.29 1018.72 1019.12 1019.37 1019.32 1019.40 1019.44 1019.70 1020.28 1020.97 1021.59 1022.07 1022.57 1022.80 1022.94 1022.87 1022.67 1022.40 1022.12 1022.02 1022.22 1022.47
1008.54 1009.08 1009.62 1010.36 1010.71 1011.26 1012.05 1012.57 1012.99 1013.16 1013.72 1014.25 1014.68 1015.20 1015.49 1016.07 1016.70 1017.21 1017.68 1017.90 1018.09 1018.18 1018.45 1018.89 1019.04 1019.42 1019.60 1019.71 1019.98 1020.44 1021.08 1021.73 1022.25 1022.78 1023.08 1023.12 1023.22 1023.10 1022.89 1022.52 1022.39 1022.62 1022.95
1007.65 1008.48 1009.11 1009.79 1010.34 1010.66 1011.34 1011.97 1012.53 1012.75 1013.20 1013.77 1014.12 1014.67 1015.07 1015.44 1015.95 1016.51 1017.00 1017.29 1017.68 1017.80 1018.10 1018.47 1019.00 1019.45 1019.78 1020.04 1020.37 1020.65 1021.38 1022.01 1022.44 1022.87 1023.25 1023.43 1023.46 1023.49 1023.47 1023.18 1023.06 1023.31 1023.40
1006.97 1007.81 1008.61 1009.38 1010.01 1010.43 1010.83 1011.42 1011.80 1012.11 1012.62 1013.15 1013.48 1014.08 1014.47 1014.82 1015.52 1016.02 1016.47 1016.96 1017.18 1017.53 1018.03 1018.42 1018.92 1019.41 1019.96 1020.15 1020.74 1020.96 1021.34 1022.13 1022.72 1023.14 1023.56 1023.72 1023.79 1023.80 1023.86 1023.88 1024.07 1024.03 1023.87
1005.84 1006.90 1008.22 1008.95 1009.55 1010.06 1010.26 1010.77 1011.20 1011.65 1012.04 1012.63 1013.01 1013.63 1014.06 1014.45 1014.98 1015.55 1016.11 1016.66 1017.00 1017.37 1017.82 1018.42 1019.04 1019.49 1019.97 1020.38 1020.83 1021.18 1021.59 1021.92 1022.61 1023.14 1023.64 1023.93 1024.15 1024.22 1024.30 1024.34 1024.43 1024.46 1024.38
1004.29 1005.59 1006.77 1008.25 1008.89 1009.45 1010.13 1010.46 1010.76 1011.20 1011.89 1012.39 1012.84 1013.41 1013.90 1014.26 1014.59 1015.17 1015.73 1016.35 1016.68 1017.22 1017.73 1018.32 1018.92 1019.34 1020.09 1020.54 1021.05 1021.47 1021.77 1022.13 1022.50 1022.75 1023.36 1023.80 1024.19 1024.36 1024.53 1024.57 1024.74 1024.81 1024.79
1003.32 1004.36 1005.48 1006.17 1007.89 1008.93 1009.69 1010.07 1010.42 1010.78 1011.39 1012.03 1012.55 1013.10 1013.78 1014.16 1014.41 1014.92 1015.46 1016.09 1016.45 1017.17 1017.71 1018.19 1018.69 1019.24 1019.67 1020.40 1020.96 1021.71 1021.96 1022.29 1022.67 1022.99 1023.31 1023.44 1023.80 1024.22 1024.52 1024.81 1025.09 1025.08 1025.10
1003.06 1003.92 1004.75 1005.59 1006.51 1008.04 1008.93 1009.58 1010.12 1010.57 1011.25 1012.00 1012.44 1012.74 1013.49 1013.91 1014.27 1014.80 1015.36 1015.53 1016.22 1016.95 1017.35 1017.83 1018.46 1019.02 1019.69 1020.04 1021.22 1022.21 1022.66 1022.58 1022.69 1022.93 1023.30 1023.57 1023.76 1023.91 1024.46 1024.88 1025.23 1025.31 1025.23
1001.39 1002.65 1004.04 1004.64 1005.36 1006.62 1007.73 1008.48 1009.58 1010.54 1011.12 1011.65 1012.29 1012.66 1013.24 1013.92 1014.27 1014.71 1015.11 1015.41 1015.88 1016.70 1017.15 1017.50 1017.86 1018.80 1019.39 1019.59 1020.70 1021.93 1022.86 1023.11 1022.92 1023.00 1023.22 1023.38 1023.76 1023.89 1024.23 1024.67 1025.18 1025.39 1025.68
1000.49 1001.47 1002.27 1003.06 1003.89 1005.18 1006.77 1008.02 1009.27 1010.42 1011.23 1011.73 1012.16 1012.60 1012.91 1013.49 1014.16 1014.48 1014.68 1015.05 1015.56 1016.13 1016.79 1017.17 1017.54 1018.03 1018.96 1019.54 1019.56 1020.35 1021.81 1022.16 1022.66 1023.16 1023.33 1023.28 1023.71 1024.16 1024.45 1024.66 1024.88 1025.07 1025.51
999.57 1000.25 1001.50 1002.56 1003.64 1004.47 1005.92 1007.19 1007.79 1009.08 1010.20 1010.88 1011.60 1012.38 1013.15 1013.39 1013.94 1014.31 1014.46 1014.69 1015.29 1015.80 1016.32 1016.88 1017.33 1017.66 1018.12 1019.08 1019.68 1019.72 1020.09 1020.60 1021.86 1023.26 1023.58 1023.62 1023.63 1023.98 1024.41 1024.75 1024.89 1025.01 1025.49
999.39 1000.45 1001.57 1002.74 1003.89 1004.54 1005.05 1005.89 1007.00 1008.22 1009.36 1010.25 1011.38 1012.33 1013.07 1013.60 1013.90 1014.37 1014.64 1014.83 1015.24 1015.63 1016.05 1016.49 1017.34 1017.63 1017.84 1018.64 1019.03 1019.69 1020.03 1020.31 1020.65 1021.66 1023.02 1023.55 1023.86 1023.93 1024.13 1024.54 1024.83 1024.97 1025.03
1000.65 1000.75 1001.59 1002.51 1003.87 1004.58 1005.18 1005.55 1006.34 1007.37 1008.57 1009.82 1011.01 1012.03 1012.99 1013.52 1014.04 1014.49 1014.78 1015.16 1015.38 1015.82 1016.21 1016.52 1017.18 1017.61 1017.78 1018.10 1018.55 1018.95 1019.36 1019.92 1020.41 1020.86 1021.98 1023.02 1023.52 1024.04 1024.06 1024.25 1024.35 1024.64 1024.84
Wind_Speed
14 18 22 21 20 18 16 16 16 15 14 14 13 13 13 12 13 12 12 13 13 14 14 13 12 12 11 11 9 8 7 9 9 8 10 13 14 15 15 13 11 10 11
20 19 24 22 21 20 17 16 16 16 15 13 12 11 12 11 11 11 11 11 12 13 13 12 11 11 10 9 8 6 8 8 7 6 9 16 17 17 18 19 16 8 11
19 17 19 22 21 21 18 17 16 16 16 14 12 12 12 12 11 9 9 8 10 13 12 11 11 10 9 8 7 7 10 9 8 3 7 8 11 19 19 19 16 17 12
18 16 17 22 21 21 19 18 17 16 16 15 13 12 12 13 13 11 11 11 11 12 12 12 11 10 9 8 7 9 10 9 12 19 9 9 12 21 21 20 18 17 17
16 15 16 20 21 20 19 17 16 16 15 15 14 12 11 12 14 15 13 12 11 12 12 11 11 10 9 8 9 10 11 10 8 14 11 10 10 19 20 19 17 19 19
15 14 18 19 19 20 18 17 15 15 15 14 14 15 14 14 14 15 13 13 12 11 11 11 11 10 9 8 9 9 10 13 18 12 12 14 13 19 19 17 16 17 17
12 11 14 17 18 19 19 17 15 14 14 14 15 16 16 15 13 14 14 13 14 12 11 11 11 10 9 8 8 9 14 17 14 12 11 12 12 18 17 19 17 16 17
15 13 12 15 15 17 17 15 14 13 14 15 17 16 16 15 14 14 14 14 13 12 11 11 10 9 7 6 7 9 13 14 14 13 10 9 16 16 17 17 15 17 19
16 14 12 10 12 13 13 14 13 12 15 18 18 18 15 14 15 15 14 13 12 11 11 10 9 7 5 4 6 10 16 19 12 9 11 7 16 16 16 16 15 18 17
13 13 13 10 8 7 9 14 13 15 17 18 18 19 16 14 14 15 14 13 11 11 11 9 7 6 4 3 5 12 20 20 12 11 7 7 15 16 16 17 17 18 18
9 11 12 13 11 10 9 11 15 17 17 18 17 20 14 7 7 10 11 14 13 11 9 9 8 6 3 2 6 15 18 8 9 7 4 13 14 15 15 16 17 18 18
15 12 11 11 11 10 8 9 10 11 9 8 9 13 7 7 7 8 11 12 12 12 12 10 7 4 1 2 3 12 7 9 8 7 5 13 13 14 15 15 16 18 19
14 11 13 12 12 12 9 7 5 5 6 6 10 9 5 6 6 4 4 5 5 8 3 5 5 3 3 4 4 6 8 8 6 5 8 12 12 13 13 13 17 17 17
15 15 14 14 14 12 8 7 7 7 6 6 8 9 6 6 6 5 3 5 5 4 5 4 3 5 5 6 7 10 9 7 5 4 7 12 12 12 12 12 15 15 17
16 15 16 15 15 13 12 9 8 9 8 8 8 8 8 8 7 6 5 5 4 4 4 5 5 5 5 6 6 9 9 9 8 5 3 13 13 13 12 11 15 15 16
19 16 15 16 16 15 13 13 10 9 10 9 8 8 10 8 7 6 6 5 5 5 5 5 5 5 5 5 6 7 9 8 8 6 4 6 14 13 12 12 14 16 14
17 18 16 16 15 14 15 14 11 10 10 10 9 11 9 8 7 7 6 5 5 4 7 5 5 5 5 4 7 6 7 8 7 7 5 4 6 13 13 13 14 13 14
19 20 17 13 16 14 15 13 10 8 9 8 9 7 8 8 9 7 5 5 5 5 5 5 5 5 5 5 4 5 5 6 8 7 5 4 4 4 9 13 13 14 15
23 22 22 17 16 16 12 9 7 8 7 7 7 7 7 8 8 7 5 5 6 5 5 5 2 5 4 4 5 5 5 5 5 6 7 7 7 5 3 11 12 13 15
23 23 22 20 18 16 10 5 3 7 6 6 7 8 8 7 7 7 6 7 6 5 5 4 5 3 5 6 8 6 4 5 5 5 6 4 6 7 5 5 4 6 14
21 21 22 21 20 15 10 10 7 9 7 5 7 9 8 7 7 6 5 8 6 6 6 7 4 6 2 4 5 4 3 4 5 5 5 5 6 6 7 5 3 2 5
26 24 21 22 22 18 13 11 5 5 2 6 6 8 9 7 7 6 9 8 7 6 7 6 6 4 3 6 5 4 2 3 1 3 4 5 6 4 5 6 6 5 5
23 26 25 26 24 20 16 11 7 5 3 4 5 8 9 10 7 7 8 8 7 6 7 6 7 7 5 2 7 6 4 5 4 1 3 4 6 4 4 6 6 6 6
22 23 22 23 22 20 19 16 20 14 11 7 5 7 7 9 7 7 8 8 7 6 8 6 5 4 5 5 2 2 2 4 4 3 1 2 5 5 6 4 5 5 8
14 18 17 19 19 18 19 18 15 15 9 5 7 9 8 5 7 5 6 6 7 5 6 7 5 5 4 4 4 3 2 2 3 4 4 3 0 3 4 5 5 5 6
1 14 15 18 17 16 16 17 17 16 12 10 10 9 6 6 5 5 5 5 5 5 6 5 5 6 5 4 3 4 4 4 4 4 3 3 5 3 3 4 5 5 5
Wind_Direction
152 148 142 138 133 132 132 130 126 123 122 120 117 113 109 105 103 101 100 101 100 97 94 90 87 83 77 70 63 52 41 46 51 59 69 63 60 55 48 44 46 48 43
138 147 143 140 137 134 137 134 131 130 128 122 121 118 112 109 108 109 112 115 115 110 105 98 90 82 74 65 49 26 22 32 46 77 92 69 58 54 46 40 32 46 51
135 144 139 138 139 136 139 138 137 134 131 125 119 117 113 116 114 114 122 126 125 120 115 107 92 83 74 57 36 14 25 14 16 28 136 85 65 55 45 40 34 27 24
140 145 143 140 141 139 141 141 141 138 133 129 122 117 112 115 114 106 109 114 112 109 108 102 98 85 70 56 32 15 27 6 26 65 79 59 64 56 47 40 36 34 26
143 142 143 142 143 141 143 144 145 139 136 132 124 116 107 109 114 109 97 95 103 95 92 99 97 90 70 48 30 14 6 2 73 78 74 66 60 52 46 39 31 32 35
144 145 139 141 144 143 143 145 146 143 141 136 131 126 121 111 108 109 103 105 113 113 108 104 96 86 71 49 35 18 6 29 75 70 64 55 56 52 44 41 38 36 34
138 139 138 141 146 146 146 148 150 151 149 140 138 134 127 122 119 114 107 109 109 107 106 101 93 80 65 46 28 18 25 81 85 72 65 57 51 50 54 49 41 39 48
133 143 143 143 148 149 149 152 155 160 151 142 134 132 120 126 126 117 116 114 112 113 108 101 94 88 71 50 30 26 34 74 83 78 67 63 56 56 50 49 50 53 54
137 143 142 151 152 150 153 159 167 162 143 138 132 123 119 131 127 125 122 120 121 118 114 108 102 97 92 65 33 42 60 81 76 69 71 62 60 55 52 54 53 59 54
133 144 148 148 151 155 158 134 127 132 134 132 129 122 132 135 131 130 130 128 125 127 126 120 117 113 111 83 50 47 92 75 69 63 56 62 63 58 59 59 64 63 55
133 148 152 155 149 145 141 138 133 135 133 135 134 128 139 137 135 133 137 138 140 139 137 136 134 127 99 67 63 80 87 81 74 60 48 59 61 61 63 61 62 63 60
158 163 156 157 146 138 142 144 141 143 143 144 143 147 152 151 138 133 144 146 149 152 155 157 146 120 32 16 19 90 91 97 85 73 62 60 62 65 65 67 67 71 67
162 166 169 160 150 149 151 148 150 147 153 151 155 162 147 149 137 134 145 151 156 163 165 147 142 155 128 134 82 99 101 90 89 82 76 68 62 66 67 70 75 73 67
171 174 173 169 158 159 155 159 162 158 167 165 176 174 144 145 145 149 166 175 168 166 162 150 142 126 102 96 88 96 105 107 106 97 96 82 71 67 68 74 79 75 62
177 175 174 168 170 161 163 167 173 173 176 176 178 179 160 157 159 157 176 179 183 176 155 159 131 126 96 91 93 104 121 114 113 111 100 95 83 72 68 73 82 72 64
177 180 167 175 174 165 172 175 180 184 177 179 179 172 166 164 165 170 176 176 173 171 150 144 145 133 118 103 82 86 117 120 120 116 106 99 92 84 74 73 73 68 67
183 173 177 175 176 176 178 180 182 186 180 179 175 168 170 163 167 163 159 153 155 137 128 123 121 121 114 109 110 101 105 119 129 126 114 105 100 94 92 80 78 75 67
170 177 178 177 181 184 184 185 187 180 173 169 167 165 167 167 161 160 152 155 148 133 131 131 140 134 133 141 135 119 111 105 119 138 140 126 125 98 103 102 89 82 74
175 172 173 182 185 191 194 186 176 158 156 162 161 169 161 169 160 154 155 154 153 140 140 153 144 140 145 144 139 133 137 131 126 123 135 142 159 135 134 114 103 93 84
175 175 176 173 181 185 187 176 146 155 152 148 159 166 160 171 160 156 153 154 151 147 160 153 145 159 146 156 131 122 127 125 136 140 140 135 124 146 140 119 117 109 96
172 173 180 178 176 177 177 178 169 183 156 145 165 162 161 168 167 155 163 155 150 159 169 158 134 137 118 132 103 74 48 127 144 152 148 148 139 134 132 153 152 106 100
178 177 178 181 174 177 177 179 162 168 140 161 158 164 164 169 172 164 166 170 157 154 158 162 146 137 123 159 135 114 148 332 277 179 147 146 140 139 121 118 146 125 115
176 178 181 183 177 174 177 163 138 129 107 149 161 168 171 170 179 168 170 167 164 158 164 169 159 150 146 175 153 150 147 193 133 165 176 149 136 125 142 137 130 118 108
183 179 178 175 175 171 164 173 168 172 182 191 160 173 188 177 178 177 178 170 163 162 163 164 160 161 134 156 115 158 120 137 162 133 155 179 147 152 143 179 142 130 118
162 172 174 169 176 174 171 174 173 175 183 144 149 168 180 182 178 181 179 162 158 156 159 155 159 156 151 147 143 152 149 140 138 143 167 184 146 179 163 144 157 146 132
158 163 172 170 173 174 176 173 172 177 164 160 160 165 176 175 178 187 172 156 146 145 153 146 146 155 147 159 157 161 159 160 181 141 122 139 169 182 171 174 149 158 124